Date String (YYYY-MM-DD hh:mm:ss) UTC,Instrument flags,Ambient pressure (hPa),Sample flow (lpm),Bypass flow (lpm),Sample temperature (°C),Ambient temperature (°C),ASC tube jacket temperature (°C),LED temperature (°C),Box temperature (°C),Sample RH (%),Span deviation,Mass concentration (μg/m³),Mass concentration (μg/m³),Mass concentration (μg/m³)
DateTimeUTC,F1_M11,P_M11,Q1_M11,Q2_M11,T1_M11,T2_M11,T3_M11,T4_M11,T5_M11,U1_M11,ZSPAN_M11,X0_M11,X2_M11,X1_M11
2023-02-28 01:00:00,,0816.0,5.04,0.00,22.1,22.8,00.0,30.7,24.2,08.4,0000.0,0002.63,0000.95,0000.45
2023-02-28 01:01:00,,0815.9,4.99,0.00,22.2,22.5,00.0,30.8,24.2,08.3,0000.0,0002.58,0000.94,0000.45
2023-02-28 01:02:00,,0815.4,4.99,0.00,22.2,22.0,00.0,30.8,24.1,08.4,0000.0,0002.54,0000.92,0000.44
2023-02-28 01:03:00,,0815.4,5.03,0.00,22.2,21.5,00.0,30.8,23.9,08.3,0000.0,0002.54,0000.90,0000.45
2023-02-28 01:04:00,,0815.6,4.99,0.00,22.2,21.3,00.0,30.8,23.8,08.3,0000.0,0002.48,0000.88,0000.45
2023-02-28 01:05:00,,0815.6,5.00,0.00,22.1,21.0,00.0,30.9,23.8,08.5,0000.0,0002.39,0000.87,0000.44
2023-02-28 01:06:00,,0815.7,5.00,0.00,22.1,20.8,00.0,30.8,23.7,08.3,0000.0,0002.20,0000.82,0000.43
2023-02-28 01:07:00,,0815.8,5.00,0.00,22.1,20.6,00.0,30.8,23.6,08.3,0000.0,0002.08,0000.75,0000.41
2023-02-28 01:08:00,,0816.0,5.00,0.00,22.0,20.5,00.0,30.8,23.6,08.4,0000.0,0001.70,0000.74,0000.40
2023-02-28 01:09:00,,0815.6,5.00,0.00,22.0,20.4,00.0,30.8,23.6,08.5,0000.0,0002.82,0000.75,0000.40
2023-02-28 01:10:00,,0815.7,4.99,0.00,22.0,20.3,00.0,30.8,23.5,08.4,0000.0,0002.91,0000.77,0000.40
2023-02-28 01:11:00,,0815.8,5.00,0.00,21.9,20.2,00.0,30.8,23.5,08.4,0000.0,0002.99,0000.80,0000.40
2023-02-28 01:12:00,,0816.0,5.01,0.00,21.9,20.1,00.0,30.8,23.5,08.5,0000.0,0003.05,0000.79,0000.39
2023-02-28 01:13:00,,0816.1,5.01,0.00,21.9,20.1,00.0,30.8,23.4,08.5,0000.0,0003.05,0000.77,0000.38
2023-02-28 01:14:00,,0816.0,5.00,0.00,21.8,20.0,00.0,30.7,23.4,08.5,0000.0,0002.99,0000.75,0000.38
2023-02-28 01:15:00,,0816.0,4.98,0.00,21.8,20.0,00.0,30.7,23.3,08.5,0000.0,0003.15,0000.79,0000.38
2023-02-28 01:16:00,,0816.1,5.03,0.00,21.8,20.4,00.0,30.7,23.5,08.6,0000.0,0003.19,0000.79,0000.38
2023-02-28 01:17:00,,0816.1,5.03,0.00,21.9,21.6,00.0,30.7,23.8,08.4,0000.0,0003.28,0000.82,0000.38
2023-02-28 01:18:00,,0816.0,5.01,0.00,22.0,22.6,00.0,30.7,24.1,08.4,0000.0,0003.35,0000.85,0000.38
2023-02-28 01:19:00,,0815.8,5.01,0.00,22.1,22.4,00.0,30.8,24.1,08.4,0000.0,0002.90,0000.87,0000.39
2023-02-28 01:20:00,,0816.0,4.99,0.00,22.1,21.9,00.0,30.8,24.0,08.5,0000.0,0001.96,0000.89,0000.40
2023-02-28 01:21:00,,0816.0,5.00,0.00,22.1,21.5,00.0,30.8,23.9,08.3,0000.0,0001.98,0000.89,0000.41
2023-02-28 01:22:00,,0816.0,5.00,0.00,22.1,21.2,00.0,30.8,23.8,08.3,0000.0,0002.02,0000.90,0000.42
2023-02-28 01:23:00,,0815.6,5.00,0.00,22.1,21.0,00.0,30.8,23.8,08.4,0000.0,0001.96,0000.90,0000.42
2023-02-28 01:24:00,,0815.9,5.00,0.00,22.1,20.8,00.0,30.8,23.7,08.4,0000.0,0001.92,0000.91,0000.43
2023-02-28 01:25:00,,0815.6,5.01,0.00,22.0,20.6,00.0,30.8,23.6,08.3,0000.0,0001.87,0000.90,0000.42
2023-02-28 01:26:00,,0815.7,5.00,0.00,22.0,20.4,00.0,30.8,23.6,08.4,0000.0,0001.83,0000.88,0000.42
2023-02-28 01:27:00,,0815.7,5.00,0.00,22.0,20.3,00.0,30.8,23.5,08.4,0000.0,0001.90,0000.89,0000.42
2023-02-28 01:28:00,,0815.7,4.99,0.00,21.9,20.2,00.0,30.8,23.5,08.5,0000.0,0002.03,0000.92,0000.43
2023-02-28 01:29:00,,0815.7,5.01,0.00,21.9,20.1,00.0,30.8,23.5,08.4,0000.0,0002.01,0000.91,0000.44
2023-02-28 01:30:00,,0815.9,4.99,0.00,21.9,20.1,00.0,30.7,23.4,08.3,0000.0,0002.01,0000.90,0000.44
2023-02-28 01:31:00,,0816.0,5.00,0.00,21.8,20.0,00.0,30.7,23.4,08.4,0000.0,0001.90,0000.85,0000.42
2023-02-28 01:32:00,,0816.1,5.02,0.00,21.8,20.0,00.0,30.7,23.3,08.4,0000.0,0001.87,0000.84,0000.40
2023-02-28 01:33:00,,0816.1,5.01,0.00,21.8,19.9,00.0,30.7,23.3,08.4,0000.0,0001.69,0000.78,0000.39
2023-02-28 01:34:00,,0816.0,5.01,0.00,21.8,20.2,00.0,30.6,23.4,08.4,0000.0,0001.59,0000.75,0000.39
2023-02-28 01:35:00,,0815.9,5.02,0.00,21.9,21.4,00.0,30.6,23.7,08.4,0000.0,0001.59,0000.72,0000.39
2023-02-28 01:36:00,,0815.9,5.01,0.00,22.0,22.6,00.0,30.6,24.0,08.3,0000.0,0001.68,0000.75,0000.38
2023-02-28 01:37:00,,0815.7,4.97,0.00,22.1,23.3,00.0,30.7,24.3,08.2,0000.0,0001.55,0000.72,0000.38
2023-02-28 01:38:00,,0815.7,4.97,0.00,22.2,22.7,00.0,30.8,24.2,08.3,0000.0,0001.61,0000.70,0000.39
2023-02-28 01:39:00,,0815.6,5.01,0.00,22.2,22.1,00.0,30.8,24.1,08.3,0000.0,0001.98,0000.67,0000.39
2023-02-28 01:40:00,,0815.6,4.98,0.00,22.2,21.6,00.0,30.8,24.0,08.3,0000.0,0001.97,0000.68,0000.39
2023-02-28 01:41:00,,0815.7,4.99,0.00,22.2,21.2,00.0,30.8,23.9,08.3,0000.0,0001.93,0000.66,0000.38
2023-02-28 01:42:00,,0815.9,5.00,0.00,22.1,21.0,00.0,30.8,23.8,08.3,0000.0,0002.02,0000.67,0000.38
2023-02-28 01:43:00,,0815.9,5.00,0.00,22.1,20.7,00.0,30.8,23.7,08.4,0000.0,0002.37,0000.67,0000.38
2023-02-28 01:44:00,,0816.0,5.00,0.00,22.0,20.6,00.0,30.8,23.6,08.4,0000.0,0002.40,0000.68,0000.38
2023-02-28 01:45:00,,0816.1,5.01,0.00,22.0,20.5,00.0,30.8,23.6,08.4,0000.0,0002.41,0000.68,0000.38
2023-02-28 01:46:00,,0816.1,5.00,0.00,22.0,20.4,00.0,30.8,23.5,08.3,0000.0,0002.36,0000.68,0000.39
2023-02-28 01:47:00,,0816.0,5.00,0.00,22.0,20.3,00.0,30.8,23.5,08.4,0000.0,0002.32,0000.66,0000.40
2023-02-28 01:48:00,,0816.0,5.01,0.00,21.9,20.2,00.0,30.8,23.4,08.5,0000.0,0002.28,0000.64,0000.40
2023-02-28 01:49:00,,0816.1,4.98,0.00,21.9,20.1,00.0,30.8,23.4,08.5,0000.0,0002.04,0000.63,0000.38
2023-02-28 01:50:00,,0816.0,5.00,0.00,21.8,20.0,00.0,30.7,23.3,08.5,0000.0,0001.66,0000.65,0000.37
2023-02-28 01:51:00,,0815.7,4.99,0.00,21.8,20.0,00.0,30.7,23.3,08.6,0000.0,0001.71,0000.62,0000.35
2023-02-28 01:52:00,,0815.7,5.01,0.00,21.8,20.8,00.0,30.7,23.6,08.6,0000.0,0001.89,0000.63,0000.35
2023-02-28 01:53:00,,0815.4,5.00,0.00,22.0,22.0,00.0,30.7,23.9,08.5,0000.0,0001.91,0000.63,0000.36
2023-02-28 01:54:00,,0815.4,4.99,0.00,22.1,22.8,00.0,30.7,24.1,08.4,0000.0,0001.67,0000.66,0000.36
2023-02-28 01:55:00,,0815.4,4.99,0.00,22.2,22.4,00.0,30.8,24.1,08.4,0000.0,0001.91,0000.72,0000.36
2023-02-28 01:56:00,,0815.4,4.99,0.00,22.2,21.8,00.0,30.8,24.0,08.4,0000.0,0002.18,0000.75,0000.37
2023-02-28 01:57:00,,0815.3,5.00,0.00,22.1,21.4,00.0,30.8,23.9,08.3,0000.0,0002.16,0000.75,0000.38
2023-02-28 01:58:00,,0815.3,5.01,0.00,22.1,21.0,00.0,30.8,23.8,08.3,0000.0,0002.17,0000.76,0000.39
2023-02-28 01:59:00,,0815.4,4.99,0.00,22.1,20.8,00.0,30.8,23.7,08.3,0000.0,0002.37,0000.81,0000.39
